Wakefield, VA

10:57 PM EDT on July 25, 2017 (GMT -0400)
Wakefield Municipal

Weather History for KAKQ - August, 2013

Change the Weather History Date:

Wednesday, August 21, 2013

  Actual Average (KJGG) Record (KJGG)
Temperature  
Mean Temperature 78 °F -  
Max Temperature 89 °F 84 °F 98 °F (1983)
Min Temperature 68 °F 65 °F 54 °F (1981)
Cooling Degree Days 12    
Growing Degree Days 28 (Base 50)    
Moisture  
Dew Point 70 °F    
Average Humidity 86    
Maximum Humidity 94    
Minimum Humidity 61    
Precipitation  
Precipitation 0.35 in - - ()
Sea Level Pressure  
Sea Level Pressure 30.17 in    
Wind  
Wind Speed 1 mph (SSW)    
Max Wind Speed 6 mph    
Max Gust Speed -    
Visibility 5 miles    
Events Rain    
Averages and records for this station are not official NWS values.
T = Trace of Precipitation, MM = Missing Value Source: NWS Daily Summary

Daily Weather History Graph

Daily Weather History Graph

Search for Another Location

Airport or City:

Trip Planner

Search our weather history database for the weather conditions in past years. The results will help you decide how hot, cold, wet, or windy it might be!

Date:

Astronomy

Aug. 21, 2013 Rise Set
Actual Time 6:29 AM EDT 7:51 PM EDT
Civil Twilight 6:02 AM EDT 8:18 PM EDT
Nautical Twilight 5:30 AM EDT 8:51 PM EDT
Astronomical Twilight 4:56 AM EDT 9:25 PM EDT
Moon 8:02 PM EDT (8/21) 7:05 AM EDT (8/21)
Length of Visible Light 14h 15m
Length of Day
13h 21m
Full, 100% of the Moon is Illuminated
Aug 21
Full
Aug 28
Last Quarter
Sep 5
New
Sep 12
First Quarter
Sep 19
Full

Hourly Weather History & Observations

Time (EDT) Temp. Heat Index Dew Point Humidity Pressure Visibility Wind Dir Wind Speed Gust Speed Precip Events Conditions
12:44 AM 69.8 °F - 68.0 °F 94% 30.19 in 2.5 mi Calm Calm - N/A   Clear
12:54 AM 70.0 °F - 68.0 °F 93% 30.19 in 2.5 mi Calm Calm - N/A   Clear
1:13 AM 69.8 °F - 66.2 °F 88% 30.19 in 3.0 mi Calm Calm - N/A   Clear
1:32 AM 69.8 °F - 66.2 °F 88% 30.19 in 2.5 mi Calm Calm - N/A   Clear
1:54 AM 69.1 °F - 66.9 °F 93% 30.19 in 2.5 mi Calm Calm - N/A   Clear
2:54 AM 68.0 °F - 66.0 °F 93% 30.19 in 2.0 mi Calm Calm - N/A   Clear
3:54 AM 68.0 °F - 66.0 °F 93% 30.19 in 2.5 mi Calm Calm - N/A   Clear
4:16 AM 68.0 °F - 66.2 °F 94% 30.18 in 3.0 mi Calm Calm - N/A   Clear
4:24 AM 68.0 °F - 66.2 °F 94% 30.18 in 2.5 mi Calm Calm - N/A   Clear
4:39 AM 68.0 °F - 66.2 °F 94% 30.18 in 3.0 mi Calm Calm - N/A   Partly Cloudy
4:54 AM 69.1 °F - 66.9 °F 93% 30.18 in 2.0 mi Calm Calm - N/A   Partly Cloudy
5:23 AM 69.8 °F - 66.2 °F 88% 30.18 in 3.0 mi Calm Calm - N/A   Mostly Cloudy
5:45 AM 69.8 °F - 68.0 °F 94% 30.19 in 2.5 mi Calm Calm - N/A   Scattered Clouds
5:54 AM 70.0 °F - 68.0 °F 93% 30.19 in 3.0 mi Calm Calm - N/A   Partly Cloudy
6:07 AM 69.8 °F - 68.0 °F 94% 30.19 in 2.5 mi Calm Calm - N/A   Partly Cloudy
6:15 AM 69.8 °F - 68.0 °F 94% 30.19 in 3.0 mi Calm Calm - N/A   Partly Cloudy
6:24 AM 69.8 °F - 68.0 °F 94% 30.19 in 2.5 mi Calm Calm - N/A   Partly Cloudy
6:54 AM 69.1 °F - 66.9 °F 93% 30.20 in 1.8 mi Calm Calm - N/A   Clear
7:12 AM 69.8 °F - 68.0 °F 94% 30.20 in 2.5 mi Calm Calm - N/A   Clear
7:54 AM 73.0 °F - 70.0 °F 90% 30.22 in 3.0 mi Calm Calm - N/A   Clear
8:54 AM 75.9 °F - 72.0 °F 87% 30.22 in 6.0 mi Calm Calm - N/A   Clear
9:27 AM 77.0 °F - 73.4 °F 89% 30.23 in 6.0 mi Variable 3.5 mph - N/A   Partly Cloudy
9:54 AM 78.1 °F - 73.0 °F 84% 30.23 in 8.0 mi SW 3.5 mph - N/A   Clear
10:54 AM 79.0 °F - 73.0 °F 82% 30.23 in 10.0 mi SW 4.6 mph - N/A   Clear
11:54 AM 81.0 °F 85.8 °F 73.0 °F 77% 30.22 in 10.0 mi SSW 3.5 mph - N/A   Scattered Clouds
12:54 PM 82.9 °F 88.8 °F 73.0 °F 72% 30.21 in 10.0 mi Variable 3.5 mph - 0.00 in   Overcast
1:07 PM 84.2 °F 90.9 °F 73.4 °F 70% 30.21 in 10.0 mi Calm Calm - N/A   Mostly Cloudy
1:54 PM 84.9 °F 91.4 °F 73.0 °F 67% 30.19 in 10.0 mi Variable 4.6 mph - N/A   Clear
2:54 PM 86.0 °F 92.2 °F 72.0 °F 63% 30.16 in 10.0 mi South 3.5 mph - N/A   Partly Cloudy
3:54 PM 86.0 °F 92.2 °F 72.0 °F 63% 30.13 in 10.0 mi Variable 3.5 mph - N/A   Scattered Clouds
4:54 PM 87.1 °F 93.6 °F 72.0 °F 61% 30.12 in 10.0 mi Variable 4.6 mph - N/A   Partly Cloudy
5:54 PM 84.9 °F 91.4 °F 73.0 °F 67% 30.12 in 10.0 mi Calm Calm - N/A   Clear
6:54 PM 82.0 °F 87.9 °F 73.9 °F 76% 30.11 in 10.0 mi Variable 3.5 mph - N/A   Clear
7:54 PM 79.0 °F - 72.0 °F 79% 30.12 in 10.0 mi Calm Calm - N/A   Partly Cloudy
8:54 PM 77.0 °F - 73.0 °F 88% 30.12 in 10.0 mi Calm Calm - N/A   Mostly Cloudy
9:54 PM 78.1 °F - 73.0 °F 84% 30.13 in 10.0 mi South 3.5 mph - N/A   Scattered Clouds
10:19 PM 77.0 °F - 73.4 °F 89% 30.14 in 8.0 mi Calm Calm - 0.00 in Rain Light Rain
10:34 PM 77.0 °F - 73.4 °F 89% 30.14 in 3.0 mi Calm Calm - 0.00 in Rain Rain
10:54 PM 75.9 °F - 73.9 °F 94% 30.13 in 7.0 mi Calm Calm - 0.01 in   Mostly Cloudy
11:29 PM 75.2 °F - 73.4 °F 94% 30.13 in 1.2 mi South 4.6 mph - 0.00 in Rain Light Rain
11:32 PM 75.2 °F - 73.4 °F 94% 30.14 in 0.8 mi South 4.6 mph - 0.09 in Rain Heavy Rain
11:42 PM 75.2 °F - 73.4 °F 94% 30.13 in 1.5 mi South 4.6 mph - 0.34 in Rain Light Rain
11:45 PM 75.2 °F - 73.4 °F 94% 30.13 in 3.0 mi Variable 3.5 mph - 0.34 in Rain Light Rain
11:50 PM 75.2 °F - 73.4 °F 94% 30.12 in 5.0 mi SSW 5.8 mph - 0.34 in Rain Light Rain
11:54 PM 75.9 °F - 72.0 °F 87% 30.12 in 8.0 mi South 3.5 mph - 0.34 in   Mostly Cloudy